This is the latest recevied weather packets stored in our database for station/object K3HW. If no packets are shown the sender has not sent any weather packets the latest 10 day(s).
| Time | Temp. | Humidity | Pressure | Rain* | Wind** | Luminosity | Snow |
|---|---|---|---|---|---|---|---|
| 1778108312 | 19.44° C | 77% | 1011.3 hPa | 0 mm | - | 9 W/m² | - |
| 1778108010 | 19.44° C | 77% | 1010.9 hPa | 0 mm | - | 15 W/m² | - |
| 1778107706 | 19.44° C | 76% | 1010.8 hPa | 0 mm | - | 21 W/m² | - |
| 1778107404 | 20° C | 76% | 1011.1 hPa | 0 mm | - | 22 W/m² | - |
| 1778107100 | 20° C | 75% | 1010.9 hPa | 0 mm | - | 22 W/m² | - |
| 1778106795 | 20.56° C | 75% | 1011 hPa | 0 mm | - | 32 W/m² | - |
| 1778106493 | 20.56° C | 73% | 1011 hPa | 0 mm | - | 42 W/m² | - |
| 1778106188 | 20.56° C | 74% | 1010.8 hPa | 0 mm | - | 54 W/m² | - |
| 1778105887 | 20.56° C | 73% | 1010.7 hPa | 0 mm | - | 91 W/m² | - |
| 1778105584 | 20° C | 76% | 1010.6 hPa | 0 mm | - | 63 W/m² | - |
| 1778105281 | 20° C | 76% | 1010.9 hPa | 0 mm | - | 29 W/m² | - |
| 1778104976 | 20° C | 76% | 1010.8 hPa | 0 mm | - | 34 W/m² | - |
| 1778104673 | 19.44° C | 77% | 1011 hPa | 0 mm | - | 49 W/m² | - |
| 1778104369 | 19.44° C | 77% | 1011 hPa | 0 mm | - | 33 W/m² | - |
| 1778104065 | 19.44° C | 77% | 1010.8 hPa | 0 mm | - | 37 W/m² | - |
| 1778103762 | 19.44° C | 76% | 1010.7 hPa | 0 mm | - | 58 W/m² | - |
| 1778103461 | 19.44° C | 77% | 1010.8 hPa | 0 mm | - | 35 W/m² | - |
| 1778103157 | 19.44° C | 77% | 1010.9 hPa | 0 mm | - | 53 W/m² | - |
| 1778102855 | 19.44° C | 77% | 1010.7 hPa | 0 mm | - | 34 W/m² | - |
| 1778102550 | 19.44° C | 78% | 1010.5 hPa | 0 mm | - | 73 W/m² | - |
| 1778102246 | 19.44° C | 78% | 1010.6 hPa | 0 mm | - | 57 W/m² | - |
| 1778101942 | 18.89° C | 78% | 1010.5 hPa | 0 mm | - | 57 W/m² | - |
| 1778101639 | 18.89° C | 79% | 1010.7 hPa | 0 mm | - | 24 W/m² | - |
| 1778101336 | 18.89° C | 78% | 1010.5 hPa | 0 mm | - | 47 W/m² | - |
| 1778101034 | 18.89° C | 79% | 1010.7 hPa | 0 mm | - | 34 W/m² | - |
* Rain latest hour (hover to see other rain measurements)
** Current wind speed in m/s (hover to see current wind gust speed)